OXFORD, CT current weather conditions

sailwx.info

Wind from 340 at 4 knots

Air temperature -9.0° C
Visibility: greater than 8.7 NM
Dewpoint -15.0° C

Last reported at 2020-Jan-21 05:05 UTC.
Time now 2020-Jan-21 06:20 UTC

Location: N 41°29' W 073°08'.
View on Google Maps.

See reports from other nearby stations

  
Tides and Currents Weather Stations Pressure Air Temp Water Temp Dewpoint Dewpoint Depression Visibility Wind Speed Wind Dir Waves Ship Positions
date/time (UTC)wind fromknots sea level pressurealtimeterstation pressurevisibilityair tempwater tempwave heightnotes
2020-Jan-21 05:05 340 4 8.7-9.0
2020-Jan-21 05:00 340 5 8.7-9.0
2020-Jan-21 04:51 340 6 8.7-8.9
2020-Jan-21 04:50 340 5 8.7-9.0
2020-Jan-21 04:45 330 3 8.7-9.0
2020-Jan-21 04:40 8.7-9.0
2020-Jan-21 04:35 320 4 8.7-9.0
2020-Jan-21 04:30 330 5 8.7-9.0
2020-Jan-21 04:25 330 6 8.7-9.0
2020-Jan-21 04:20 330 4 8.7-9.0
2020-Jan-21 04:15 330 6 8.7-8.0
2020-Jan-21 04:10 330 8 8.7-8.0
2020-Jan-21 04:05 330 10 8.7-9.0
2020-Jan-21 04:00 340 10 8.7-9.0
2020-Jan-21 03:55 340 11 8.7-9.0
2020-Jan-21 03:51 340 11 gusting 15 8.7-8.9
2020-Jan-21 03:50 340 11 8.7-9.0
2020-Jan-21 03:45 340 11 8.7-9.0
2020-Jan-21 03:40 330 10 8.7-9.0
2020-Jan-21 03:35 340 9 8.7-9.0
2020-Jan-21 03:30 340 9 8.7-9.0
2020-Jan-21 03:25 330 8 8.7-9.0
2020-Jan-21 03:20 330 10 8.7-9.0
2020-Jan-21 03:15 330 10 8.7-9.0
2020-Jan-21 03:10 330 9 8.7-9.0
2020-Jan-21 02:55 340 11 8.7-9.0
2020-Jan-21 02:51 340 9 8.7-8.3
2020-Jan-21 02:50 330 11 8.7-8.0
2020-Jan-21 02:45 330 8 8.7-9.0
2020-Jan-21 02:40 330 9 8.7-9.0
2020-Jan-21 02:35 330 9 8.7-8.0
2020-Jan-21 02:30 330 8 8.7-8.0
2020-Jan-21 02:25 330 9 8.7-8.0
2020-Jan-21 02:20 330 9 8.7-8.0
2020-Jan-21 02:15 330 8 8.7-8.0
2020-Jan-21 02:10 330 9 8.7-8.0
2020-Jan-21 02:05 330 9 8.7-8.0
2020-Jan-21 02:00 330 12 8.7-8.0
2020-Jan-21 01:55 330 8 8.7-8.0
2020-Jan-21 01:51 320 8 8.7-8.3
2020-Jan-21 01:50 320 9 8.7-8.0
2020-Jan-21 01:45 340 9 8.7-8.0
2020-Jan-21 01:40 330 7 8.7-8.0
2020-Jan-21 01:35 320 10 gusting 15 8.7-8.0
2020-Jan-21 01:30 310 8 8.7-8.0
2020-Jan-21 01:25 330 8 8.7-8.0
2020-Jan-21 01:20 320 11 8.7-8.0
2020-Jan-21 01:15 320 7 8.7-8.0
2020-Jan-21 01:10 330 9 8.7-8.0
2020-Jan-21 01:05 320 8 8.7-8.0
2020-Jan-21 01:00 330 10 8.7-8.0
2020-Jan-21 00:55 320 10 8.7-8.0
2020-Jan-21 00:51 330 8 8.7-7.8
2020-Jan-21 00:50 330 10 8.7-8.0
2020-Jan-21 00:45 320 7 8.7-8.0
2020-Jan-21 00:40 330 7 8.7-8.0
2020-Jan-21 00:35 330 10 8.7-8.0
2020-Jan-21 00:30 330 9 8.7-7.0
2020-Jan-21 00:25 330 10 8.7-7.0
2020-Jan-21 00:20 330 6 8.7-7.0
2020-Jan-21 00:15 330 8 8.7-7.0
2020-Jan-21 00:10 330 10 8.7-7.0
2020-Jan-21 00:05 330 8 8.7-7.0
2020-Jan-21 00:00 330 9 8.7-7.0
2020-Jan-20 23:55 330 10 8.7-7.0
2020-Jan-20 23:51 330 8 gusting 13 8.7-7.2
2020-Jan-20 23:50 320 9 8.7-7.0
2020-Jan-20 23:45 320 7 8.7-7.0
2020-Jan-20 23:40 330 9 8.7-7.0
2020-Jan-20 23:35 320 7 8.7-7.0
2020-Jan-20 23:30 310 6 8.7-7.0
2020-Jan-20 23:25 320 7 8.7-7.0
2020-Jan-20 23:20 310 5 8.7-7.0
2020-Jan-20 23:15 320 7 8.7-7.0
2020-Jan-20 23:10 330 7 8.7-7.0
2020-Jan-20 23:05 330 6 8.7-7.0
2020-Jan-20 23:00 330 8 8.7-7.0
2020-Jan-20 22:55 330 7 8.7-7.0
2020-Jan-20 22:51 300 2 8.7-6.7
2020-Jan-20 22:50 310 4 8.7-7.0
2020-Jan-20 22:45 320 4 8.7-7.0
2020-Jan-20 22:40 330 6 8.7-7.0
2020-Jan-20 22:30 320 6 8.7-7.0
2020-Jan-20 22:25 330 6 8.7-6.0
2020-Jan-20 22:20 320 8 8.7-6.0
2020-Jan-20 22:15 330 6 8.7-6.0
2020-Jan-20 22:10 310 6 8.7-6.0
2020-Jan-20 22:05 330 8 8.7-6.0
2020-Jan-20 22:00 330 8 8.7-6.0
2020-Jan-20 21:51 330 9 gusting 14 8.7-5.6
2020-Jan-20 21:50 340 11 8.7-6.0
2020-Jan-20 21:40 320 9 8.7-6.0
2020-Jan-20 21:35 330 9 8.7-6.0
2020-Jan-20 21:30 310 8 8.7-6.0
2020-Jan-20 21:25 330 9 8.7-6.0
2020-Jan-20 21:20 310 8 8.7-5.0
2020-Jan-20 21:15 310 9 8.7-5.0
2020-Jan-20 21:10 310 10 8.7-5.0
2020-Jan-20 21:05 320 8 8.7-5.0
2020-Jan-20 21:00 330 9 8.7-5.0
2020-Jan-20 20:55 320 13 8.7-4.0
2020-Jan-20 20:51 330 9 gusting 18 8.7-4.4
2020-Jan-20 20:45 320 13 8.7-4.0
2020-Jan-20 20:40 320 11 gusting 16 8.7-4.0
2020-Jan-20 20:30 330 13 8.7-4.0
2020-Jan-20 20:25 320 9 8.7-4.0
2020-Jan-20 20:15 310 12 8.7-4.0
2020-Jan-20 20:05 320 14 8.7-4.0
2020-Jan-20 20:00 310 6 8.7-4.0
2020-Jan-20 19:55 320 9 8.7-4.0
2020-Jan-20 19:51 330 9 8.7-3.9
2020-Jan-20 19:50 330 11 8.7-4.0
2020-Jan-20 19:45 330 11 gusting 16 8.7-4.0
2020-Jan-20 19:40 330 10 8.7-4.0
2020-Jan-20 19:35 330 13 8.7-4.0
2020-Jan-20 19:30 310 13 8.7-4.0
2020-Jan-20 19:25 320 11 8.7-4.0
2020-Jan-20 19:20 330 9 8.7-4.0
2020-Jan-20 19:15 320 11 8.7-4.0
2020-Jan-20 19:10 320 11 8.7-4.0
2020-Jan-20 19:05 320 9 gusting 14 8.7-4.0
2020-Jan-20 19:00 330 8 8.7-4.0
2020-Jan-20 18:55 320 10 8.7-4.0
2020-Jan-20 18:51 320 11 gusting 19 8.7-4.4
2020-Jan-20 18:50 320 12 8.7-4.0
2020-Jan-20 18:45 320 11 8.7-4.0
2020-Jan-20 18:40 310 12 8.7-4.0
2020-Jan-20 18:35 320 11 8.7-4.0
2020-Jan-20 18:30 330 13 8.7-4.0
2020-Jan-20 18:25 330 7 8.7-4.0
2020-Jan-20 18:20 330 10 8.7-4.0
2020-Jan-20 18:15 320 11 8.7-4.0
2020-Jan-20 18:10 330 11 7.8-4.0
2020-Jan-20 18:05 320 7 7.8-4.0
2020-Jan-20 18:00 320 8 8.7-5.0
2020-Jan-20 17:55 300 8 8.7-5.0
2020-Jan-20 17:51 310 8 gusting 18 8.7-4.4
2020-Jan-20 17:50 290 8 8.7-4.0
2020-Jan-20 17:45 330 10 8.7-5.0
2020-Jan-20 17:40 340 12 8.7-5.0
2020-Jan-20 17:35 320 10 8.7-5.0
2020-Jan-20 17:30 310 11 gusting 16 8.7-5.0
2020-Jan-20 17:25 330 13 8.7-5.0
2020-Jan-20 17:20 310 10 8.7-6.0
2020-Jan-20 17:15 320 8 8.7-6.0
2020-Jan-20 17:10 310 10 8.7-6.0
2020-Jan-20 17:05 320 9 8.7-6.0
2020-Jan-20 17:00 330 9 8.7-6.0
2020-Jan-20 16:55 310 7 8.7-6.0
2020-Jan-20 16:51 320 7 8.7-6.1
2020-Jan-20 16:50 330 8 8.7-6.0
2020-Jan-20 16:45 330 9 8.7-6.0
2020-Jan-20 16:40 320 6 8.7-7.0
2020-Jan-20 16:35 320 9 8.7-7.0
2020-Jan-20 16:30 310 11 8.7-7.0
2020-Jan-20 16:25 310 8 8.7-7.0
2020-Jan-20 16:20 300 9 8.7-7.0
2020-Jan-20 16:15 310 10 8.7-7.0
2020-Jan-20 16:10 330 8 8.7-7.0
2020-Jan-20 16:05 310 8 8.7-7.0
2020-Jan-20 16:00 330 8 8.7-7.0
2020-Jan-20 15:55 310 7 8.7-7.0
2020-Jan-20 15:51 340 9 gusting 15 8.7-7.2
2020-Jan-20 15:50 350 12 8.7-7.0
2020-Jan-20 15:45 340 11 8.7-7.0
2020-Jan-20 15:40 320 9 8.7-8.0
2020-Jan-20 15:35 320 8 8.7-8.0
2020-Jan-20 15:30 350 14 8.7-8.0
2020-Jan-20 15:25 340 9 8.7-8.0
2020-Jan-20 15:20 330 10 8.7-8.0
2020-Jan-20 15:10 310 10 gusting 15 8.7-8.0
2020-Jan-20 15:05 310 11 8.7-8.0
2020-Jan-20 15:00 310 8 8.7-8.0
2020-Jan-20 14:55 320 8 8.7-8.0
2020-Jan-20 14:51 320 9 8.7-8.3
2020-Jan-20 14:50 320 11 8.7-8.0
2020-Jan-20 14:45 320 12 8.7-9.0
2020-Jan-20 14:40 320 11 8.7-9.0
2020-Jan-20 14:35 320 13 8.7-9.0
2020-Jan-20 14:30 320 11 8.7-9.0
2020-Jan-20 14:25 320 12 8.7-9.0
2020-Jan-20 14:20 340 13 8.7-9.0
2020-Jan-20 14:15 330 9 8.7-9.0
2020-Jan-20 14:10 330 9 8.7-9.0
2020-Jan-20 14:05 330 8 8.7-9.0
2020-Jan-20 14:00 310 9 8.7-9.0
2020-Jan-20 13:55 330 13 gusting 18 8.7-9.0
2020-Jan-20 13:51 320 11 gusting 15 8.7-10.0
2020-Jan-20 13:50 320 11 8.7-10.0
2020-Jan-20 13:45 330 11 8.7-10.0
2020-Jan-20 13:40 330 13 8.7-10.0
2020-Jan-20 13:35 340 10 8.7-10.0
2020-Jan-20 13:30 320 9 8.7-10.0
2020-Jan-20 13:25 330 11 8.7-10.0
2020-Jan-20 13:20 330 9 8.7-11.0
2020-Jan-20 13:15 320 9 8.7-11.0
2020-Jan-20 13:10 320 7 8.7-11.0
2020-Jan-20 13:05 330 11 8.7-11.0
2020-Jan-20 13:00 330 10 8.7-11.0
2020-Jan-20 12:55 330 11 8.7-11.0
2020-Jan-20 12:51 320 9 8.7-10.6
2020-Jan-20 12:50 320 10 8.7-11.0
2020-Jan-20 12:45 330 11 8.7-11.0
2020-Jan-20 12:40 330 9 8.7-11.0
2020-Jan-20 12:35 320 11 gusting 16 8.7-11.0
2020-Jan-20 12:30 330 13 gusting 18 8.7-11.0
2020-Jan-20 12:25 320 14 8.7-11.0
2020-Jan-20 12:20 320 10 gusting 16 8.7-11.0
2020-Jan-20 12:15 320 10 8.7-11.0
2020-Jan-20 12:10 320 9 8.7-11.0
2020-Jan-20 12:05 320 8 8.7-11.0
2020-Jan-20 12:00 320 6 8.7-11.0
2020-Jan-20 11:55 330 4 8.7-10.0
2020-Jan-20 11:51 320 7 8.7-10.0
2020-Jan-20 11:50 320 9 8.7-10.0
2020-Jan-20 11:45 330 10 8.7-10.0
2020-Jan-20 11:35 320 10 8.7-10.0
2020-Jan-20 11:30 320 10 8.7-10.0
2020-Jan-20 11:25 330 10 8.7-10.0
2020-Jan-20 11:20 330 13 8.7-10.0
2020-Jan-20 11:15 320 12 8.7-10.0
2020-Jan-20 11:10 330 10 8.7-10.0
2020-Jan-20 11:05 320 7 8.7-10.0
2020-Jan-20 11:00 330 10 8.7-10.0
2020-Jan-20 10:55 340 10 8.7-10.0
2020-Jan-20 10:51 330 8 8.7-10.0
2020-Jan-20 10:50 320 9 8.7-10.0
2020-Jan-20 10:45 330 10 8.7-10.0
2020-Jan-20 10:40 330 7 8.7-10.0
2020-Jan-20 10:39 330 7 8.7-10.0
2020-Jan-20 10:35 330 9 8.7-10.0
2020-Jan-20 10:30 320 10 8.7-10.0
2020-Jan-20 10:25 330 10 8.7-10.0
2020-Jan-20 10:20 330 5 8.7-10.0
2020-Jan-20 10:15 330 9 8.7-10.0
2020-Jan-20 10:10 330 10 8.7-10.0
2020-Jan-20 09:55 330 9 8.7-9.0
2020-Jan-20 09:51 340 11 8.7-9.4
2020-Jan-20 09:50 340 10 8.7-9.0
2020-Jan-20 09:45 330 9 8.7-9.0
2020-Jan-20 09:40 330 8 8.7-9.0
2020-Jan-20 09:35 340 16 8.7-9.0
2020-Jan-20 09:15 330 9 gusting 16 8.7-9.0
2020-Jan-20 09:05 340 14 8.7-9.0
2020-Jan-20 09:00 330 15 gusting 20 8.7-9.0
2020-Jan-20 08:55 340 16 8.7-9.0
2020-Jan-20 08:51 340 12 gusting 20 8.7-9.4
2020-Jan-20 08:50 340 11 8.7-9.0
2020-Jan-20 08:45 330 14 gusting 20 8.7-9.0
2020-Jan-20 08:40 330 15 8.7-9.0
2020-Jan-20 08:35 330 12 8.7-9.0
2020-Jan-20 08:30 330 12 gusting 18 8.7-9.0
2020-Jan-20 08:25 320 12 8.7-9.0
2020-Jan-20 08:20 320 11 8.7-9.0
2020-Jan-20 08:15 340 12 8.7-9.0
2020-Jan-20 08:10 330 10 gusting 15 8.7-9.0
2020-Jan-20 08:05 340 11 8.7-9.0
2020-Jan-20 08:00 330 11 8.7-9.0
2020-Jan-20 07:55 330 11 8.7-9.0
2020-Jan-20 07:51 340 12 gusting 19 8.7-8.9
2020-Jan-20 07:50 330 13 8.7-9.0
2020-Jan-20 07:45 330 15 8.7-9.0
2020-Jan-20 07:40 330 11 8.7-9.0
2020-Jan-20 07:35 320 14 8.7-9.0
2020-Jan-20 07:30 330 13 8.7-9.0
2020-Jan-20 07:25 320 12 gusting 18 8.7-9.0
2020-Jan-20 07:20 330 12 gusting 17 8.7-9.0
2020-Jan-20 07:15 330 10 8.7-9.0
2020-Jan-20 07:05 340 14 gusting 20 8.7-9.0
2020-Jan-20 07:00 330 10 8.7-9.0
2020-Jan-20 06:55 330 16 8.7-9.0
2020-Jan-20 06:51 340 13 8.7-8.9
2020-Jan-20 06:50 330 13 8.7-9.0
2020-Jan-20 06:45 340 14 8.7-9.0
2020-Jan-20 06:40 340 15 gusting 20 8.7-9.0
2020-Jan-20 06:35 350 14 8.7-9.0
2020-Jan-20 06:30 340 17 8.7-8.0
2020-Jan-20 06:25 330 16 8.7-8.0
2020-Jan-20 06:20 320 12 8.7-8.0
2020-Jan-20 06:15 330 9 gusting 16 8.7-8.0
2020-Jan-20 06:10 330 10 8.7-8.0
2020-Jan-20 06:05 330 12 8.7-8.0
2020-Jan-20 06:00 340 15 8.7-8.0
2020-Jan-20 05:55 340 9 8.7-8.0
2020-Jan-20 05:51 330 12 8.7-7.2
2020-Jan-20 05:50 330 11 8.7-7.0
2020-Jan-20 05:45 320 10 8.7-7.0
2020-Jan-20 05:35 310 11 8.7-7.0
2020-Jan-20 05:30 310 10 8.7-7.0
2020-Jan-20 05:25 320 12 8.7-7.0
2020-Jan-20 05:20 340 11 8.7-7.0
2020-Jan-20 05:15 320 14 8.7-7.0
2020-Jan-20 05:10 320 15 gusting 23 8.7-7.0
2020-Jan-20 05:05 340 14 8.7-7.0
2020-Jan-20 05:00 330 8 8.7-7.0
2020-Jan-20 04:55 330 13 8.7-6.0
2020-Jan-20 04:51 340 14 gusting 20 8.7-6.1
2020-Jan-20 04:45 330 12 8.7-6.0
2020-Jan-20 04:30 330 13 8.7-6.0
2020-Jan-20 04:25 330 11 gusting 20 8.7-6.0
2020-Jan-20 04:15 330 14 8.7-5.0
2020-Jan-20 04:10 320 13 8.7-5.0
2020-Jan-20 04:05 340 15 8.7-5.0
2020-Jan-20 04:00 330 12 8.7-5.0
2020-Jan-20 03:55 330 11 8.7-5.0
2020-Jan-20 03:51 320 11 gusting 20 8.7-4.4
2020-Jan-20 03:50 330 11 gusting 16 8.7-4.0
2020-Jan-20 03:40 310 9 7.8-4.0
2020-Jan-20 03:39 320 7 gusting 15 7.8-4.0
2020-Jan-20 03:35 310 11 7.8-4.0 Light snow.
2020-Jan-20 03:30 320 12 7.8-4.0 Light snow.
2020-Jan-20 03:25 330 11 gusting 16 7.8-4.0 Light snow.
2020-Jan-20 03:20 320 10 7.8-3.0 Light snow.
2020-Jan-20 03:18 330 12 gusting 15 7.8-3.0 Light snow.
2020-Jan-20 03:15 330 11 7.8-3.0 Light snow.
2020-Jan-20 03:10 340 9 7.8-3.0 Light snow.
2020-Jan-20 03:05 340 15 7.8-3.0 Light snow.
2020-Jan-20 03:00 340 14 7.8-3.0 Light snow.
2020-Jan-20 02:51 340 13 gusting 21 7.8-2.2 Light snow.
2020-Jan-20 02:50 340 14 7.8-2.0 Light snow.
2020-Jan-20 02:45 330 15 7.8-2.0 Light snow.
2020-Jan-20 02:40 320 12 gusting 17 8.7-2.0 Light snow.
2020-Jan-20 02:35 330 8 8.7-2.0
2020-Jan-20 02:30 310 7 8.7-2.0
2020-Jan-20 02:25 320 8 7.8-2.0
2020-Jan-20 02:20 340 9 7.8-2.0 Light snow.
2020-Jan-20 02:15 330 8 7.8-1.0 Light snow.
2020-Jan-20 02:10 330 10 7.8-1.0 Light snow.
2020-Jan-20 02:05 320 6 7.8-1.0 Light snow.
2020-Jan-20 02:00 290 9 7.8-1.0 Light snow.
2020-Jan-20 01:55 280 4 7.8-1.0 Light snow.
2020-Jan-20 01:51 300 6 7.8-1.1 Light snow.
2020-Jan-20 01:50 300 6 7.8-1.0 Light snow.
2020-Jan-20 01:45 290 6 8.7-1.0 Light snow.
2020-Jan-20 01:40 280 6 8.7-1.0 Precipitation.
2020-Jan-20 01:35 290 6 8.7-1.0
2020-Jan-20 01:30 280 7 8.7-1.0
2020-Jan-20 01:25 270 6 8.7-1.0
2020-Jan-20 01:20 280 5 8.7-1.0
2020-Jan-20 01:15 280 6 8.7-1.0
2020-Jan-20 01:10 290 6 8.7-1.0
2020-Jan-20 01:05 290 5 8.7-1.0
2020-Jan-20 01:00 310 7 8.7-1.0
2020-Jan-20 00:55 290 7 8.7-1.0
2020-Jan-20 00:51 8.7-0.6
2020-Jan-20 00:50 290 5 8.7-1.0
2020-Jan-20 00:45 280 10 8.7-1.0
2020-Jan-20 00:35 270 5 8.7-1.0
2020-Jan-20 00:30 270 6 8.7-1.0
2020-Jan-20 00:25 290 7 8.7-1.0
2020-Jan-20 00:20 290 6 8.7-1.0
2020-Jan-20 00:15 280 6 8.7-1.0
2020-Jan-20 00:10 280 6 8.7-1.0
2020-Jan-20 00:05 280 7 8.7-1.0
2020-Jan-19 23:55 270 7 8.7-1.0
2020-Jan-19 23:51 290 6 8.7-0.6
2020-Jan-19 23:50 270 7 8.7-1.0
2020-Jan-19 23:45 270 8 8.7-1.0
2020-Jan-19 23:40 280 7 8.7-1.0
2020-Jan-19 23:30 250 4 8.7-1.0
2020-Jan-19 23:25 260 6 8.7-0.0
2020-Jan-19 23:20 280 7 8.7-0.0
2020-Jan-19 23:15 290 7 8.7-0.0
2020-Jan-19 23:10 270 4 8.7-0.0
2020-Jan-19 23:05 300 5 8.7 1.0
2020-Jan-19 23:00 300 9 8.7 1.0
2020-Jan-19 22:55 290 9 8.7 1.0
2020-Jan-19 22:51 290 9 8.7 0.6
2020-Jan-19 22:50 300 8 8.7 1.0
2020-Jan-19 22:45 300 7 8.7 1.0
2020-Jan-19 22:40 300 10 8.7 1.0
2020-Jan-19 22:35 300 9 8.7 1.0
2020-Jan-19 22:30 310 11 8.7 1.0
2020-Jan-19 22:25 290 6 8.7 1.0
2020-Jan-19 22:15 300 7 8.7 1.0
2020-Jan-19 22:05 280 8 8.7 2.0
2020-Jan-19 22:00 290 6 8.7 2.0
2020-Jan-19 21:55 280 6 8.7 2.0
2020-Jan-19 21:51 300 6 8.7 1.7
2020-Jan-19 21:50 290 7 8.7 2.0
2020-Jan-19 21:45 300 6 8.7 2.0
2020-Jan-19 21:40 310 9 8.7 2.0
2020-Jan-19 21:35 320 8 8.7 2.0
2020-Jan-19 21:30 310 10 gusting 16 8.7 2.0
2020-Jan-19 21:25 320 7 8.7 2.0
2020-Jan-19 21:20 330 10 8.7 2.0
2020-Jan-19 21:15 310 8 8.7 2.0
2020-Jan-19 21:05 300 6 8.7 2.0
2020-Jan-19 21:00 310 9 gusting 15 8.7 2.0
2020-Jan-19 20:55 320 8 8.7 2.0
2020-Jan-19 20:51 320 7 gusting 17 8.7 2.2
2020-Jan-19 20:50 320 7 8.7 2.0
2020-Jan-19 20:45 320 9 gusting 14 8.7 2.0
2020-Jan-19 20:40 320 10 8.7 3.0
2020-Jan-19 20:25 320 6 8.7 3.0
2020-Jan-19 20:20 300 7 8.7 3.0
2020-Jan-19 20:15 290 6 8.7 3.0
2020-Jan-19 20:10 280 8 8.7 3.0
2020-Jan-19 20:05 280 11 8.7 3.0
2020-Jan-19 20:00 280 9 gusting 14 8.7 3.0
2020-Jan-19 19:55 290 8 8.7 3.0
2020-Jan-19 19:51 280 8 gusting 21 8.7 3.3
2020-Jan-19 19:50 280 7 8.7 3.0
2020-Jan-19 19:45 290 14 8.7 4.0
2020-Jan-19 19:40 290 11 8.7 4.0
2020-Jan-19 19:35 270 11 gusting 16 8.7 4.0
2020-Jan-19 19:30 290 14 gusting 20 8.7 4.0
2020-Jan-19 19:20 260 11 gusting 17 8.7 4.0
2020-Jan-19 19:15 290 10 8.7 4.0
2020-Jan-19 19:10 290 8 8.7 4.0
2020-Jan-19 19:00 290 10 8.7 4.0
2020-Jan-19 18:55 300 9 gusting 14 8.7 4.0
2020-Jan-19 18:51 300 8 gusting 17 8.7 3.9
2020-Jan-19 18:50 290 9 8.7 4.0
2020-Jan-19 18:45 310 12 8.7 4.0
2020-Jan-19 18:35 290 10 8.7 4.0
2020-Jan-19 18:30 260 11 gusting 18 8.7 4.0
2020-Jan-19 18:25 270 8 8.7 4.0
2020-Jan-19 18:20 310 10 gusting 15 8.7 4.0
2020-Jan-19 18:15 290 7 8.7 4.0
2020-Jan-19 18:10 290 8 8.7 4.0
2020-Jan-19 18:05 280 7 8.7 4.0
2020-Jan-19 18:00 290 8 8.7 4.0
2020-Jan-19 17:55 280 10 8.7 4.0
2020-Jan-19 17:51 310 12 gusting 18 8.7 3.9
2020-Jan-19 17:50 310 13 8.7 4.0
2020-Jan-19 17:45 300 11 8.7 4.0
2020-Jan-19 17:40 300 10 8.7 4.0
2020-Jan-19 17:35 290 11 gusting 18 8.7 4.0
2020-Jan-19 17:30 300 8 8.7 4.0
2020-Jan-19 17:20 300 10 8.7 4.0
2020-Jan-19 17:15 320 11 8.7 4.0
2020-Jan-19 17:10 310 9 gusting 15 8.7 4.0
2020-Jan-19 17:05 300 12 8.7 4.0
2020-Jan-19 17:00 300 11 gusting 17 8.7 4.0
2020-Jan-19 16:55 300 11 gusting 16 8.7 4.0
2020-Jan-19 16:51 290 12 gusting 17 8.7 4.4
2020-Jan-19 16:50 290 12 8.7 4.0
2020-Jan-19 16:45 290 5 8.7 4.0
2020-Jan-19 16:40 250 6 8.7 4.0
2020-Jan-19 16:35 290 8 8.7 4.0
2020-Jan-19 16:30 290 11 8.7 4.0
2020-Jan-19 16:25 290 10 8.7 4.0
2020-Jan-19 16:20 290 9 gusting 15 8.7 4.0
2020-Jan-19 16:15 280 7 8.7 4.0
2020-Jan-19 16:10 260 10 8.7 4.0
2020-Jan-19 16:05 260 10 8.7 4.0
2020-Jan-19 16:00 270 11 8.7 4.0
2020-Jan-19 15:55 260 7 8.7 4.0
2020-Jan-19 15:51 260 7 8.7 4.4
2020-Jan-19 15:50 270 6 8.7 4.0
2020-Jan-19 15:45 270 7 8.7 4.0
2020-Jan-19 15:40 270 8 8.7 4.0
2020-Jan-19 15:35 270 12 8.7 4.0
2020-Jan-19 15:30 280 11 8.7 4.0
2020-Jan-19 15:25 280 12 8.7 4.0
2020-Jan-19 15:20 280 12 8.7 4.0
2020-Jan-19 15:15 280 12 8.7 4.0
2020-Jan-19 15:10 280 12 gusting 18 8.7 4.0
2020-Jan-19 15:05 270 12 8.7 4.0
2020-Jan-19 15:00 270 11 8.7 4.0
2020-Jan-19 14:55 260 10 gusting 15 8.7 3.0
2020-Jan-19 14:51 260 11 gusting 19 8.7 3.3
2020-Jan-19 14:50 260 8 8.7 3.0
2020-Jan-19 14:45 260 11 8.7 3.0
2020-Jan-19 14:40 260 12 8.7 3.0
2020-Jan-19 14:35 270 10 gusting 18 8.7 3.0
2020-Jan-19 14:30 280 9 8.7 3.0
2020-Jan-19 14:25 270 8 8.7 3.0
2020-Jan-19 14:20 280 8 8.7 3.0
2020-Jan-19 14:10 270 7 8.7 3.0
2020-Jan-19 14:00 270 7 8.7 3.0
2020-Jan-19 13:55 270 7 8.7 3.0
2020-Jan-19 13:51 270 7 gusting 13 8.7 2.8
2020-Jan-19 13:50 270 10 8.7 3.0
2020-Jan-19 13:45 270 10 8.7 3.0
2020-Jan-19 13:40 260 7 8.7 2.0
2020-Jan-19 13:35 270 6 8.7 2.0
2020-Jan-19 13:25 280 5 8.7 1.0
2020-Jan-19 13:20 270 6 8.7 1.0
2020-Jan-19 13:15 290 5 8.7 1.0
2020-Jan-19 13:10 280 6 8.7-0.0
2020-Jan-19 13:05 290 5 8.7-0.0
2020-Jan-19 13:00 300 6 8.7-0.0
2020-Jan-19 12:51 310 5 8.7-0.0
2020-Jan-19 12:50 310 5 8.7-0.0
2020-Jan-19 12:40 310 7 8.7-0.0
2020-Jan-19 12:35 290 6 8.7-0.0
2020-Jan-19 12:30 300 6 8.7-0.0
2020-Jan-19 12:25 300 5 8.7-0.0
2020-Jan-19 12:20 290 7 8.7-0.0
2020-Jan-19 12:10 280 7 8.7-1.0
2020-Jan-19 12:05 280 8 8.7-1.0
2020-Jan-19 12:00 270 6 8.7-1.0
2020-Jan-19 11:51 300 6 8.7-0.6
2020-Jan-19 11:50 290 6 8.7-1.0
2020-Jan-19 11:40 280 6 7.8-1.0
2020-Jan-19 11:30 280 6 7.0-1.0
2020-Jan-19 11:20 270 6 7.0-1.0
2020-Jan-19 11:10 260 5 7.0-0.0
2020-Jan-19 11:05 250 5 7.0-0.0
2020-Jan-19 11:00 250 8 7.0-0.0
2020-Jan-19 10:51 260 7 6.9-0.0
2020-Jan-19 10:50 250 7 7.0-0.0
2020-Jan-19 10:45 250 8 6.1-0.0
2020-Jan-19 10:35 270 6 4.3-0.0 Mist.
2020-Jan-19 10:30 260 5 3.5-0.0 Mist.
2020-Jan-19 10:25 270 6 3.5-0.0 Mist.
2020-Jan-19 10:23 260 6 3.5-0.0 Mist.
2020-Jan-19 10:20 260 7 2.6-0.0 Mist.
2020-Jan-19 10:15 250 5 2.2-0.0 Mist.
2020-Jan-19 10:05 250 7 2.2 1.0 Mist.
2020-Jan-19 10:00 250 7 2.2 1.0 Mist.
2020-Jan-19 09:55 250 8 2.2 1.0 Mist.
2020-Jan-19 09:51 260 6 1.7-0.0 Mist.
2020-Jan-19 09:50 260 7 1.7-0.0 Mist.
2020-Jan-19 09:45 270 6 1.7 1.0 Mist.
2020-Jan-19 09:36 260 6 2.2 1.0 Mist.
2020-Jan-19 09:35 260 7 1.7 1.0 Mist.
2020-Jan-19 09:25 230 6 1.3-0.0 Light snow. Mist.
2020-Jan-19 09:15 250 6 1.1-0.0 Mist.
2020-Jan-19 09:10 250 5 1.3 1.0 Mist.
2020-Jan-19 09:05 240 5 1.5 1.0 Mist.
2020-Jan-19 09:00 250 7 1.5 1.0 Mist.
2020-Jan-19 08:51 250 6 1.5 0.6 Mist.
2020-Jan-19 08:50 250 7 1.5 1.0 Mist.
2020-Jan-19 08:45 260 7 1.3 1.0 Mist.
2020-Jan-19 08:40 270 6 0.9 1.0 Mist.
2020-Jan-19 08:35 270 4 0.7 1.0 Mist.
2020-Jan-19 08:30 270 4 0.7 1.0 Mist.
2020-Jan-19 08:28 270 5 0.7 1.0 Mist.
2020-Jan-19 08:25 280 5 0.7 1.0 Mist.
2020-Jan-19 08:20 260 4 0.4 1.0 Fog.
2020-Jan-19 08:15 240 4 0.4 1.0 Fog.
2020-Jan-19 08:10 240 5 0.4 1.0 Fog.
2020-Jan-19 08:05 240 4 0.4 1.0 Fog.
2020-Jan-19 08:00 240 4 0.4 1.0 Fog.
2020-Jan-19 07:55 230 4 0.4 1.0 Fog.
2020-Jan-19 07:51 240 5 0.4 0.6 Fog.
2020-Jan-19 07:50 230 4 0.4 1.0 Fog.
2020-Jan-19 07:45 240 5 0.4 1.0 Fog.
2020-Jan-19 07:41 250 2 0.4 1.0 Fog.
2020-Jan-19 07:40 250 3 0.7 1.0 Mist.
2020-Jan-19 07:35 230 4 0.7 1.0 Light rain. Mist.
2020-Jan-19 07:30 240 6 0.9 1.0 Light rain. Mist.
2020-Jan-19 07:25 220 6 0.9 1.0 Mist.
2020-Jan-19 07:20 230 6 0.9 1.0 Mist.
2020-Jan-19 07:15 240 4 1.1 1.0 Mist.
2020-Jan-19 07:10 260 6 0.9 1.0 Mist.
2020-Jan-19 07:05 250 6 0.9 1.0 Mist.
2020-Jan-19 07:00 240 4 1.1 1.0 Light snow. Mist.
2020-Jan-19 06:55 240 4 1.1 1.0 Light snow. Mist.
2020-Jan-19 06:51 240 5 1.1 0.6 Light rain. Mist.
2020-Jan-19 06:50 240 6 1.1 1.0 Light rain. Mist.
2020-Jan-19 06:45 240 5 1.1 1.0 Mist.
2020-Jan-19 06:40 220 4 1.1 1.0 Mist.
2020-Jan-19 06:35 230 5 0.9 1.0 Light rain. Mist.
2020-Jan-19 06:32 230 6 0.9 1.0 Light rain. Mist.
2020-Jan-19 06:30 230 8 0.7 1.0 Light rain. Mist.
2020-Jan-19 06:25 230 5 0.4 1.0 Light rain. Fog.
2020-Jan-19 06:20 240 5 0.4 1.0 Fog.
2020-Jan-19 06:15 230 5 0.4 1.0 Fog.
2020-Jan-19 06:10 220 4 0.4 1.0 Fog.
2020-Jan-19 06:05 220 3 0.4 1.0 Fog.
2020-Jan-19 06:00 220 5 0.4 1.0 Fog.